Minot, ND

7:24 AM CST on February 19, 2017 (GMT -0600)
Minot International

Weather History for KMOT - October, 2013

Change the Weather History Date:

Thursday, October 3, 2013

  Actual Average Record
Temperature  
Mean Temperature 49 °F 50 °F  
Max Temperature 56 °F 62 °F 89 °F (1914)
Min Temperature 41 °F 39 °F 19 °F (1989)
Degree Days  
Heating Degree Days 16 15  
Month to date heating degree days 37 43  
Since 1 July heating degree days 228 363  
Cooling Degree Days 0 0  
Month to date cooling degree days 0 0  
Year to date cooling degree days 421 444  
Moisture  
Dew Point 36 °F    
Average Humidity 65    
Maximum Humidity 83    
Minimum Humidity 47    
Precipitation  
Precipitation 0.00 in 0.04 in 1.24 in (2012)
Month to date precipitation T 0.13  
Year to date precipitation 22.34 15.03  
Sea Level Pressure  
Sea Level Pressure 30.13 in    
Wind  
Wind Speed 9 mph (NNW)    
Max Wind Speed 17 mph    
Max Gust Speed 23 mph    
Visibility 10 miles    
Events      
T = Trace of Precipitation, MM = Missing Value Source: NWS Daily Summary

Daily Weather History Graph

Daily Weather History Graph

Search for Another Location

Airport or City:

Trip Planner

Search our weather history database for the weather conditions in past years. The results will help you decide how hot, cold, wet, or windy it might be!

Date:

Astronomy

Oct. 03, 2013 Rise Set
Actual Time 7:47 AM CDT 7:19 PM CDT
Civil Twilight 7:16 AM CDT 7:50 PM CDT
Nautical Twilight 6:40 AM CDT 8:26 PM CDT
Astronomical Twilight 6:03 AM CDT 9:03 PM CDT
Moon 6:19 AM CDT (10/3) 6:30 PM CDT (10/3)
Length of Visible Light 12h 33m
Length of Day
11h 31m
Waning Crescent, 2% of the Moon is Illuminated
Oct 3
Waning Crescent
Oct 4
New
Oct 11
First Quarter
Oct 18
Full
Oct 26
Last Quarter

Hourly Weather History & Observations

Time (CDT) Temp. Windchill Dew Point Humidity Pressure Visibility Wind Dir Wind Speed Gust Speed Precip Events Conditions
12:54 AM 44.1 °F 40.8 °F 35.1 °F 71% 30.04 in 10.0 mi WNW 5.8 mph - N/A   Clear
1:54 AM 44.1 °F 42.5 °F 35.1 °F 71% 30.05 in 10.0 mi NNW 3.5 mph - N/A   Clear
2:54 AM 44.1 °F - 35.1 °F 71% 30.04 in 10.0 mi Calm Calm - N/A   Clear
3:54 AM 44.1 °F - 35.1 °F 71% 30.04 in 10.0 mi Calm Calm - N/A   Clear
4:54 AM 43.0 °F - 37.0 °F 80% 30.05 in 10.0 mi Calm Calm - N/A   Clear
5:54 AM 42.1 °F 38.4 °F 36.0 °F 79% 30.07 in 10.0 mi WNW 5.8 mph - N/A   Clear
6:54 AM 42.1 °F 38.4 °F 36.0 °F 79% 30.09 in 10.0 mi NW 5.8 mph - N/A   Clear
7:54 AM 41.0 °F 37.1 °F 36.0 °F 82% 30.12 in 10.0 mi NW 5.8 mph - N/A   Clear
8:54 AM 43.0 °F 37.7 °F 37.0 °F 80% 30.12 in 10.0 mi NW 9.2 mph - N/A   Partly Cloudy
9:54 AM 48.0 °F - 39.0 °F 71% 30.12 in 10.0 mi NNW 10.4 mph - N/A   Clear
10:54 AM 46.9 °F - 39.0 °F 74% 30.13 in 10.0 mi NNW 11.5 mph - N/A   Mostly Cloudy
11:54 AM 51.1 °F - 37.0 °F 59% 30.13 in 10.0 mi North 13.8 mph - N/A   Overcast
12:54 PM 54.0 °F - 37.0 °F 53% 30.14 in 10.0 mi NNE 11.5 mph - N/A   Mostly Cloudy
1:54 PM 55.0 °F - 37.0 °F 51% 30.13 in 10.0 mi North 12.7 mph 20.7 mph N/A   Partly Cloudy
2:54 PM 55.0 °F - 36.0 °F 49% 30.14 in 10.0 mi North 9.2 mph 20.7 mph N/A   Clear
3:54 PM 55.9 °F - 37.0 °F 49% 30.14 in 10.0 mi North 11.5 mph 18.4 mph N/A   Partly Cloudy
4:54 PM 55.0 °F - 36.0 °F 49% 30.15 in 10.0 mi NNW 10.4 mph - N/A   Partly Cloudy
5:54 PM 52.0 °F - 35.1 °F 53% 30.17 in 10.0 mi North 12.7 mph - N/A   Clear
6:54 PM 50.0 °F - 34.0 °F 54% 30.19 in 10.0 mi North 11.5 mph - N/A   Clear
7:54 PM 46.9 °F - 35.1 °F 63% 30.22 in 10.0 mi NNW 9.2 mph - N/A   Clear
8:54 PM 45.0 °F 39.7 °F 36.0 °F 71% 30.23 in 10.0 mi North 10.4 mph - N/A   Clear
9:54 PM 43.0 °F 37.7 °F 37.0 °F 80% 30.25 in 10.0 mi North 9.2 mph - N/A   Clear
11:54 PM 44.1 °F 38.1 °F 39.0 °F 82% 30.29 in 10.0 mi North 11.5 mph - N/A   Overcast